Torna al catalogo

CZ-6A DEB

AttivoPO
NORAD 61313·DEBRIS·🇨🇳 China

Lanciato Aug 6, 2024 da Taiyuan Satellite Launch Center

Loading…

Prossimi Passaggi (prossime 24 ore)

TLE

AggiornatoSource: Space-Track

Epoca: Sep 14, 2026, 08:33 UTC

1 61313U 24140UA  26257.35670227  .00012318  00000-0  18933-2 0  9990
2 61313  88.7722 237.4831 0028554 276.6310  83.1660 14.73195598109283

Traccia CZ-6A DEB in tempo reale con AllMySat

Download on the App Store